Content
SEND FEEDBACK

Daily
Averages
Monthly
Summary
United States of America

ST. LOUIS, MISSOURI


Home > North America > United States > Missouri
Elevation: 535 feet     Latitude: 38 45N     Longitude: 090 22W

WEATHER
 
SELECT A DAY
Number of Records: 196,477;   Date Range: 1/1/95 - 8/28/14
 
SHARE

PRINT THIS DATA

[ ← Previous Day ]
WEATHER ALMANAC - JANUARY 8, 2013
[ Next Day → ]
[ °C ]   °F
Weather ElementAverageHighLow
Temperature42.6 °F57 °F (2:54 pm)25 °F (4:54 am)
Dewpoint23.2 °F34 °F (11:54 pm)18 °F (3:54 pm)
Humidity51.5 %85 % (5:54 am)23 % (3:54 pm)
Barometer30.16 in30.23 in (8:54 am)30.09 in (2:54 pm)
Wind Speed4.1 mph11.5 mph (7:54 pm)
Weather ElementAverage
Visibility10 mi
Wind DirectionESE (100.9 °)

Weather ElementTotal
Precipitation---
Heating Degree Days24 (Base 65)
Averaged from 23 records on January 8, 2013
WEATHER CONDITIONS BREAKOUT
WIND DIRECTION BREAKOUT
WEATHER BY HOUR - JANUARY 8, 2013
[ °C ]   °F
Local TimeTemperatureDewpointHumidityBarometerVisibilityWind DirectionWind SpeedGust SpeedPrecipitationEventsConditions
1:54 AM30.0 °F21.0 °F69 %30.17 in10.0 miCalmClear
2:54 AM28.9 °F21.0 °F72 %30.18 in10.0 miCalmClear
3:54 AM26.1 °F19.9 °F78 %30.18 in10.0 miCalmClear
4:54 AM25.0 °F19.9 °F81 %30.18 in10.0 miCalmClear
5:54 AM25.0 °F21.0 °F85 %30.19 in10.0 miCalmClear
6:54 AM26.1 °F21.0 °F81 %30.19 in10.0 miCalmMostly Cloudy
7:54 AM27.0 °F21.9 °F81 %30.22 in10.0 miCalmMostly Cloudy
8:54 AM30.9 °F26.1 °F82 %30.23 in10.0 miCalmScattered Clouds
9:54 AM43.0 °F25.0 °F49 %30.21 in10.0 miSSW (200°)5.8 mphScattered Clouds
10:54 AM46.9 °F23.0 °F39 %30.19 inNorthScattered Clouds
11:54 AM50.0 °F23.0 °F35 %30.16 in10.0 miVariable3.5 mphPartly Cloudy
12:54 PM53.1 °F23.0 °F31 %30.13 in10.0 miSSW (210°)8.1 mphClear
1:54 PM55.0 °F21.0 °F27 %30.11 in10.0 miSouth (170°)9.2 mphClear
2:54 PM57.0 °F19.9 °F24 %30.09 in10.0 miSSE (160°)5.8 mphClear
3:54 PM55.9 °F18.0 °F23 %30.10 in10.0 miSSE (160°)9.2 mphScattered Clouds
4:54 PM53.1 °F19.0 °F26 %30.10 in10.0 miSouth (180°)8.1 mphMostly Cloudy
5:54 PM52.0 °F19.9 °F28 %30.10 in10.0 miSouth (170°)4.6 mphScattered Clouds
6:54 PM51.1 °F23.0 °F33 %30.12 in10.0 miSouth (190°)6.9 mphOvercast
7:54 PM51.1 °F27.0 °F39 %30.13 in10.0 miSSW (200°)11.5 mphOvercast
8:54 PM50.0 °F28.0 °F43 %30.14 in10.0 miSSW (210°)9.2 mphMostly Cloudy
9:54 PM46.9 °F28.9 °F50 %30.15 in10.0 miCalmScattered Clouds
10:54 PM46.4 °F30.2 °F53 %30.14 in10.0 miSSW (210°)4.6 mphScattered Clouds
11:54 PM48.9 °F34.0 °F56 %30.17 in10.0 miWest (260°)3.5 mphOvercast
Hourly data recorded from KSUS, located miles away from St. Louis, Missouri







STORIES FROM OUR PARTNERS